STARLINK-1930 (46789 NORAD) Tracking and Keplerian Element Data

This shows tracking and keplerian element data for the satellite.

Feedback or suggestion? Click here.




ElementValue
Catalog46789
NameSTARLINK-1930
Epoch Orbit177
Epoch Day330.91667824
Epoch Year2020
RAAN2.0158
Inclination53.0551
Eccentricity8.47E-05
Argument of Perigee69.2612
Mean Anonmoly169.9863
Mean Motion15.62748203
Decay Rate0.00087621
L11 46789U 20074BC 20330.91667824 .00087621 00000-0 95267-3 0 9994
L22 46789 53.0551 2.0158 0000847 69.2612 169.9863 15.62748203 1771

Live tracking and technical data element details for STARLINK-1930 (NORAD 46789). STARLINK-1930 can be tracked NOW for your location showing map with azimuth and elevation plus other details from your city location.

Track the satellite on the map from your city or location and see movement details for azimuth, elevation, latitude, longitude, range, height, and movement on the map or in text.







IsCatalogInMostPopularTable: catalog: 46789, numindb: 5
Update: records affected: 1



GetName: 46789 STARLINK-1930

Hit Count: updated at: Thu, 26 Nov 2020 18:25:49 GMT